Location: Bats
(43.6587°N, 0.4584°W)
Time: 11:21:02
(UTC+00:00)

Cosmos 1758 - Pass Details

Date: 12 January 2026
Orbit: 479 x 500 km, 82.5° (Epoch: 10 February)

Event Time Altitude Azimuth Distance (km) Brightness Sun altitude
Rises 17:34:05 0° 347° (NNW) 2,563 6.6 -8.5°
Reaches altitude 10° 17:36:14 10° 343° (NNW) 1,674 5.8 -8.9°
Maximum altitude 17:39:48 54° 265° (W) 591 3.9 -9.5°
Drops below altitude 10° 17:43:20 10° 188° (S) 1,651 6.1 -10.1°
Sets 17:45:26 0° 183° (S) 2,524 7.0 -10.4°
